[[{"header":{"parameterUnit":"m.s-1","parameterCategory":2,"la1":30.2991,"la2":30.254,"lo1":-89.0895,"lo2":-89.0444,"dy":0.0017,"dx":0.0017,"nx":28,"ny":28,"refTime":"2026-02-15T03:00:00:Z","depth":"0","parameterNumber":2,"parameterNumberName":"U-component_of_CURRENTS"},"data":[0,0,0,0,0,0,0,0,0,0,0,0,0,0,0,0,0,0,0,0,0,0,0,0,0,0,0,0,0,0,0,0,0,0,0,0,0,0,0,0,0,0,0,0,0,0,0,0,0,0,0,0,0,0,0,0,0,0,0.251,0.251,0,0.2517,0.2517,0.2517,0.2501,0.2501,0.2501,0.25,0.2482,0.2482,0.2482,0,0,0,0,0,0,0,0,0,0,0,0,0,0.2481,0.2482,0.251,0.251,0.251,0.2517,0.2517,0.2517,0.2501,0.2501,0.2501,0.25,0.2482,0.2482,0.2482,0,0,0,0,0,0,0,0,0,0,0,0,0,0.249,0.2482,0.251,0.2505,0.2504,0.2517,0.2517,0.2517,0.2502,0.2501,0.25,0.25,0.2482,0.2482,0.2482,0.2491,0,0,0.2481,0.2481,0,0,0,0,0,0,0,0,0.2489,0.2491,0.2505,0.2505,0.2505,0.2509,0.25,0.2508,0.2502,0.2501,0.25,0.25,0.2491,0.249,0.249,0.249,0.2489,0.2481,0.2481,0.2481,0.2481,0,0,0,0,0,0,0,0.2489,0.249,0.2511,0.2506,0.2505,0.2502,0.2502,0.2502,0.2497,0.2501,0.25,0.2504,0.249,0.249,0.2489,0.2489,0.2481,0.2481,0.2481,0.2481,0.2526,0.2527,0,0,0,0,0,0,0.2492,0.249,0.2511,0.2511,0.2498,0.2503,0.2503,0.2507,0.2497,0.2496,0.2504,0.2503,0.2491,0.249,0.2489,0.252,0.2481,0.2481,0.2481,0.2524,0.2526,0.2527,0,0,0,0,0,0,0.2492,0.2494,0.251,0.2502,0.2504,0.2504,0.2508,0.2507,0.2511,0.25,0.2498,0.2509,0.249,0.2489,0.2499,0.2519,0.2481,0.248,0.2523,0.2525,0.2527,0.257,0,0,0,0,0,0,0.2491,0.2494,0.2498,0.2502,0.2505,0.2524,0.2509,0.2508,0.2515,0.2514,0.2504,0.2502,0.249,0.2499,0.2499,0.2518,0.248,0.2521,0.2524,0.2526,0.2566,0.2573,0.2578,0,0,0,0,0,0.249,0.2496,0.2498,0.2501,0.251,0.2524,0.2525,0.2522,0.2516,0.2522,0.252,0.2502,0.2515,0.25,0.2499,0.2518,0.252,0.2523,0.2526,0.2564,0.2572,0.2578,0,0,0,0,0,0,0.2483,0.2495,0.2497,0.2507,0.2519,0.2522,0.2527,0.2528,0.2531,0.2529,0.2516,0.2514,0.2532,0.2522,0.2506,0.2541,0.2516,0.2519,0.2546,0.2553,0.2558,0.2567,0.248,0,0,0,0,0,0.2485,0.2494,0.2507,0.2515,0.2522,0.2527,0.2532,0.2534,0.2538,0.2539,0.2533,0.2534,0.2544,0.2545,0.2549,0.2564,0.257,0.2578,0.2584,0.2589,0.2597,0.2627,0.2636,0.2537,0.2537,0.2537,0,0,0.2483,0.2493,0.2496,0.2514,0.252,0.2538,0.2528,0.2542,0.2558,0.2537,0.2553,0.2553,0.2554,0.2574,0.2581,0.2566,0.2623,0.2593,0.2597,0.2602,0.2631,0.2641,0.2649,0.2539,0.2539,0.2538,0,0,0.2487,0.2495,0.2504,0.2519,0.2538,0.2547,0.2554,0.2566,0.2573,0.2592,0.2587,0.2603,0.2606,0.2617,0.2622,0.2665,0.2654,0.2664,0.2697,0.2726,0.2735,0.2742,0.2769,0.2779,0.2664,0.2664,0.2664,0,0.2485,0.25,0.251,0.2528,0.2541,0.2554,0.2572,0.2587,0.2601,0.2614,0.2603,0.2635,0.2632,0.2669,0.2683,0.2678,0.269,0.2667,0.2734,0.2741,0.2748,0.2774,0.2784,0.2667,0.2667,0.2666,0.2666,0,0.2498,0.2514,0.2522,0.255,0.2567,0.2586,0.2611,0.263,0.2641,0.2655,0.2691,0.2696,0.2714,0.2721,0.2713,0.2763,0.2756,0.2739,0.2714,0.276,0.2785,0.2794,0.267,0.2669,0.2669,0.2668,0,0,0.2483,0.2524,0.2526,0.254,0.2582,0.2593,0.2634,0.2671,0.2703,0.2718,0.2758,0.278,0.2783,0.279,0.2789,0.2816,0.2874,0.2799,0.2799,0.2822,0.2943,0.2913,0.292,0.2867,0.2868,0.287,0.2942,0,0.249,0.2519,0.2545,0.2575,0.259,0.2625,0.2663,0.2699,0.2736,0.2779,0.2799,0.2836,0.281,0.2828,0.285,0.2875,0.29,0.2856,0.2897,0.2898,0.2863,0.2931,0.283,0.2884,0.2951,0.2953,0.2954,0,0.2491,0.2511,0.2539,0.2585,0.2596,0.2622,0.2684,0.2723,0.2794,0.2828,0.2871,0.2889,0.2939,0.2908,0.2968,0.294,0.2945,0.2957,0.296,0.2924,0.2886,0.2848,0.2899,0.2844,0.2968,0.2967,0.2966,0,0.2456,0.2504,0.2523,0.2538,0.2597,0.262,0.2657,0.273,0.2777,0.2866,0.2907,0.2963,0.2998,0.302,0.3035,0.3009,0.31,0.3064,0.3042,0.304,0.2959,0.2946,0.2957,0.3105,0.3105,0.3105,0.3105,0,0.2446,0.2459,0.2506,0.2515,0.2548,0.2597,0.2651,0.2709,0.2802,0.2853,0.2922,0.2975,0.3027,0.3074,0.3074,0.3096,0.3129,0.3069,0.3065,0.2971,0.296,0.291,0.2882,0.3108,0.3107,0.3106,0.3106,0,0.2401,0.2434,0.2455,0.2512,0.2529,0.255,0.2638,0.268,0.278,0.2854,0.2885,0.3004,0.3073,0.3116,0.3176,0.3147,0.3093,0.3164,0.3053,0.3035,0.2945,0.2923,0.2834,0.2742,0.3159,0.3158,0.3158,0,0.2379,0.2386,0.2436,0.2444,0.2468,0.2511,0.2543,0.2653,0.2704,0.2856,0.2882,0.3001,0.3063,0.3162,0.3162,0.3185,0.3085,0.3086,0.3014,0.2948,0.2921,0.2809,0.2728,0.2928,0.2926,0.2924,0.2923,0,0.2336,0.2355,0.237,0.2391,0.2414,0.2443,0.2498,0.2538,0.266,0.2732,0.283,0.2908,0.3037,0.3044,0.3101,0.3092,0.2951,0.3051,0.3011,0.2774,0.2624,0.2529,0.2876,0.2908,0.2909,0.2911,0.2911,0.2912,0.2297,0.2293,0.2311,0.2322,0.2342,0.2348,0.2344,0.2417,0.2478,0.2563,0.2702,0.278,0.2901,0.2984,0.2959,0.2886,0.2856,0.2796,0.2788,0.269,0.2555,0.2874,0.288,0.2881,0.2883,0.2883,0.2884,0,0.2231,0.223,0.2239,0.2234,0.2213,0.2259,0.2285,0.2266,0.2283,0.2422,0.25,0.2611,0.2664,0.2738,0.2749,0.2649,0.2508,0.2572,0.2393,0.2334,0.2655,0.26,0.251,0.251,0.251,0.251,0.251,0.251,0.2195,0.2165,0.2164,0.2098,0.2093,0.2025,0.2013,0.2016,0.208,0.214,0.2213,0.2328,0.2549,0.2647,0.2582,0.2504,0.2302,0.2198,0.218,0.2431,0.245,0.2469,0.2411,0.2283,0.2282,0.1752,0.1748,0.1745]},{"header":{"parameterUnit":"m.s-1","parameterCategory":2,"la1":30.2991,"la2":30.254,"lo1":-89.0895,"lo2":-89.0444,"dy":0.0017,"dx":0.0017,"nx":28,"ny":28,"refTime":"2026-02-15T03:00:00:Z","depth":"0","parameterNumber":3,"parameterNumberName":"V-component_of_CURRENTS"},"data":[0,0,0,0,0,0,0,0,0,0,0,0,0,0,0,0,0,0,0,0,0,0,0,0,0,0,0,0,0,0,0,0,0,0,0,0,0,0,0,0,0,0,0,0,0,0,0,0,0,0,0,0,0,0,0,0,0,0,-0.0053,-0.0053,0,-0.0088,-0.0088,-0.0089,-0.0121,-0.0122,-0.0122,-0.0122,-0.0176,-0.0177,-0.0178,0,0,0,0,0,0,0,0,0,0,0,0,0,-0.0065,-0.0065,-0.0053,-0.0053,-0.0054,-0.0088,-0.0088,-0.0089,-0.0121,-0.0122,-0.0122,-0.0122,-0.0176,-0.0177,-0.0178,0,0,0,0,0,0,0,0,0,0,0,0,0,-0.0077,-0.0064,-0.0053,-0.0073,-0.0075,-0.0087,-0.0088,-0.0089,-0.0121,-0.0122,-0.0122,-0.0122,-0.0175,-0.0177,-0.0179,-0.0182,0,0,-0.0184,-0.0185,0,0,0,0,0,0,0,0,-0.0076,-0.0077,-0.007,-0.0071,-0.0074,-0.0099,-0.0112,-0.012,-0.0121,-0.0105,-0.0122,-0.0123,-0.0151,-0.0155,-0.0162,-0.0184,-0.0186,-0.0184,-0.0185,-0.0186,-0.0186,0,0,0,0,0,0,0,-0.0076,-0.0076,-0.0068,-0.007,-0.0072,-0.0097,-0.0099,-0.0114,-0.0127,-0.0107,-0.0109,-0.011,-0.0152,-0.016,-0.0164,-0.0187,-0.0184,-0.0186,-0.0187,-0.0187,-0.0213,-0.0213,0,0,0,0,0,0,-0.0065,-0.0075,-0.0067,-0.0069,-0.0074,-0.0096,-0.0098,-0.0092,-0.0126,-0.0131,-0.011,-0.0111,-0.0157,-0.0162,-0.0166,-0.0159,-0.0186,-0.0188,-0.0189,-0.0213,-0.0213,-0.0212,0,0,0,0,0,0,-0.0065,-0.0063,-0.0066,-0.0072,-0.0074,-0.0095,-0.0088,-0.0092,-0.0098,-0.0128,-0.0134,-0.011,-0.0158,-0.0163,-0.0174,-0.0162,-0.0188,-0.019,-0.0214,-0.0213,-0.0213,-0.0153,0,0,0,0,0,0,-0.0065,-0.0063,-0.0056,-0.0071,-0.0073,-0.0064,-0.0087,-0.0093,-0.0098,-0.01,-0.0131,-0.0136,-0.0158,-0.0171,-0.0176,-0.0165,-0.0191,-0.0214,-0.0214,-0.0213,-0.0156,-0.0151,-0.0146,0,0,0,0,0,-0.0065,-0.0047,-0.0056,-0.0055,-0.0062,-0.0063,-0.0066,-0.0085,-0.0097,-0.0093,-0.0116,-0.0135,-0.017,-0.0172,-0.0178,-0.0167,-0.0215,-0.0214,-0.0213,-0.0158,-0.0152,-0.0146,0,0,0,0,0,0,-0.0048,-0.0049,-0.0059,-0.0042,-0.005,-0.0068,-0.0066,-0.0079,-0.0094,-0.0099,-0.013,-0.0136,-0.0143,-0.0163,-0.0164,-0.0173,-0.0196,-0.0196,-0.0152,-0.0147,-0.0142,-0.0125,-0.0193,0,0,0,0,0,-0.0041,-0.0029,-0.0038,-0.0026,-0.0027,-0.0047,-0.0051,-0.0062,-0.0076,-0.0084,-0.0105,-0.0128,-0.0144,-0.0151,-0.017,-0.0172,-0.0195,-0.0169,-0.0164,-0.016,-0.0151,-0.0177,-0.0173,-0.021,-0.021,-0.021,0,0,-0.0032,-0.0031,-0.0025,-0.0022,-0.0032,-0.002,-0.005,-0.0049,-0.0041,-0.0087,-0.0084,-0.0113,-0.0142,-0.0146,-0.015,-0.0159,-0.0163,-0.0159,-0.0155,-0.0148,-0.0175,-0.0172,-0.0168,-0.0209,-0.0209,-0.0209,0,0,-0.0002,-0.0006,0.0014,0.0014,0.0009,-0.0001,0.0004,-0.0011,-0.0019,-0.0023,-0.0054,-0.0071,-0.0096,-0.0112,-0.0123,-0.0104,-0.014,-0.0113,-0.0072,-0.0097,-0.0094,-0.0092,-0.0117,-0.0118,-0.0107,-0.0107,-0.0107,0,0.0008,0.0035,0.0019,0.0039,0.0047,0.0014,0.0039,0.0027,0.0011,0.001,-0.0014,-0.005,-0.0078,-0.0078,-0.0074,-0.0092,-0.0114,-0.0089,-0.009,-0.0088,-0.0087,-0.0114,-0.0115,-0.0104,-0.0105,-0.0105,-0.0105,0,0.0055,0.0074,0.0086,0.0103,0.0107,0.0122,0.0109,0.0106,0.0087,0.0074,0.0062,0.0017,-0.0,-0.0016,-0.004,-0.004,-0.0062,-0.0083,-0.0101,-0.0079,-0.011,-0.0112,-0.01,-0.0101,-0.0102,-0.0103,0,0,0.0087,0.0116,0.012,0.0142,0.0144,0.0157,0.0167,0.0174,0.019,0.0151,0.0164,0.012,0.009,0.0075,0.0037,0.0012,-0.0004,-0.0026,-0.0029,-0.0046,-0.0061,-0.0072,-0.0076,-0.0027,-0.0027,-0.0027,-0.0086,0,0.013,0.0186,0.0186,0.0236,0.0265,0.0245,0.0261,0.0258,0.0246,0.0248,0.0192,0.0185,0.0127,0.0118,0.0084,0.0022,-0.0007,0.0014,-0.0084,-0.0087,-0.0095,-0.0078,-0.0064,-0.0115,-0.0089,-0.0089,-0.0089,0,0.0181,0.0213,0.0271,0.0311,0.0322,0.0341,0.0368,0.0382,0.0369,0.0358,0.0333,0.0285,0.0245,0.0188,0.0092,0.0108,0.0033,-0.0026,-0.003,-0.0061,-0.0102,-0.0133,-0.0121,-0.0252,-0.0093,-0.0093,-0.0093,0,0.0222,0.0276,0.0326,0.034,0.0374,0.0393,0.041,0.0414,0.0447,0.0431,0.0442,0.0375,0.0352,0.0247,0.0122,0.0107,0.001,-0.0026,-0.0109,-0.0111,-0.0128,-0.0131,-0.0248,-0.0095,-0.0095,-0.0095,-0.0095,0,0.0275,0.0315,0.035,0.0379,0.0444,0.0444,0.0509,0.0513,0.0536,0.0586,0.0505,0.0523,0.0366,0.0287,0.0156,0.0024,0.0035,-0.0095,-0.0123,-0.0107,-0.0108,-0.0247,-0.0335,-0.0097,-0.0097,-0.0096,-0.0096,0,0.0316,0.0335,0.0401,0.0447,0.0467,0.0515,0.0587,0.0637,0.0639,0.0699,0.0697,0.0642,0.0541,0.0373,0.021,0.0086,-0.0133,-0.0106,-0.0077,-0.0101,-0.03,-0.0386,-0.054,-0.0594,-0.0205,-0.0205,-0.0206,0,0.0343,0.038,0.0457,0.0504,0.0528,0.0599,0.0654,0.0688,0.0754,0.078,0.082,0.0738,0.0709,0.0463,0.0222,-0.0007,-0.0147,-0.0149,-0.0176,-0.0302,-0.0419,-0.0479,-0.0517,-0.0181,-0.0181,-0.0181,-0.0181,0,0.0398,0.0422,0.0477,0.0577,0.0645,0.0734,0.0816,0.0884,0.0928,0.0977,0.1029,0.1003,0.0765,0.0553,0.0231,0.0062,-0.0243,-0.016,-0.03,-0.0414,-0.0478,-0.0545,-0.0156,-0.0183,-0.0183,-0.0182,-0.0182,-0.0182,0.044,0.0489,0.0562,0.066,0.0743,0.0855,0.0941,0.1035,0.1148,0.1231,0.1197,0.1192,0.0858,0.0431,0.0183,-0.0252,-0.0268,-0.038,-0.0475,-0.0523,-0.0574,-0.0185,-0.0237,-0.0238,-0.0238,-0.0238,-0.0238,0,0.0495,0.0552,0.0643,0.0759,0.0862,0.0897,0.1042,0.1136,0.1277,0.1352,0.1398,0.1237,0.0833,0.0406,-0.0184,-0.0496,-0.0611,-0.0679,-0.0766,-0.079,-0.0449,-0.0444,-0.0532,-0.0532,-0.0532,-0.0531,-0.0531,-0.0531,0.0524,0.0618,0.0666,0.0838,0.0923,0.1068,0.1157,0.1295,0.1389,0.149,0.1496,0.1468,0.1136,0.007,-0.0639,-0.0807,-0.1021,-0.109,-0.1195,-0.0974,-0.0953,-0.0933,-0.0948,-0.114,-0.1141,-0.1473,-0.1477,-0.148]}],[{"header":{"parameterUnit":"m.s-1","parameterCategory":2,"la1":30.2991,"la2":30.254,"lo1":-89.0895,"lo2":-89.0444,"dy":0.0017,"dx":0.0017,"nx":28,"ny":28,"refTime":"2026-02-15T03:00:00:Z","depth":"2","parameterNumber":2,"parameterNumberName":"U-component_of_CURRENTS"},"data":[0,0,0,0,0,0,0,0,0,0,0,0,0,0,0,0,0,0,0,0,0,0,0,0,0,0,0,0,0,0,0,0,0,0,0,0,0,0,0,0,0,0,0,0,0,0,0,0,0,0,0,0,0,0,0,0,0,0,0.2272,0.2273,0,0.2285,0.2285,0.2285,0.228,0.228,0.2279,0.2279,0.2274,0.2274,0.2274,0,0,0,0,0,0,0,0,0,0,0,0,0,0.2238,0.2239,0.2272,0.2273,0.2273,0.2285,0.2285,0.2285,0.228,0.228,0.2279,0.2279,0.2274,0.2274,0.2274,0,0,0,0,0,0,0,0,0,0,0,0,0,0.225,0.2239,0.2272,0.2273,0.2274,0.2285,0.2285,0.2285,0.228,0.228,0.2279,0.2279,0.2274,0.2274,0.2274,0.2277,0,0,0.2274,0.2274,0,0,0,0,0,0,0,0,0.2249,0.2251,0.2273,0.2273,0.2274,0.2282,0.2271,0.2282,0.228,0.2275,0.2279,0.2279,0.2276,0.2276,0.2276,0.2277,0.2277,0.2274,0.2274,0.2274,0.2274,0,0,0,0,0,0,0,0.2249,0.2251,0.2275,0.2273,0.2274,0.2271,0.2273,0.2273,0.2275,0.2276,0.2276,0.228,0.2276,0.2276,0.2276,0.2277,0.2274,0.2274,0.2274,0.2274,0.2323,0.2325,0,0,0,0,0,0,0.2252,0.225,0.2275,0.2276,0.2263,0.2272,0.2274,0.2278,0.2275,0.2275,0.2281,0.228,0.2277,0.2276,0.2276,0.2314,0.2274,0.2274,0.2274,0.2322,0.2324,0.2325,0,0,0,0,0,0,0.2251,0.2254,0.2275,0.2265,0.2267,0.2273,0.2278,0.2279,0.2288,0.228,0.2279,0.2291,0.2276,0.2276,0.2291,0.2313,0.2274,0.2274,0.232,0.2322,0.2324,0.2369,0,0,0,0,0,0,0.225,0.2253,0.226,0.2265,0.2268,0.229,0.2279,0.2279,0.2291,0.2291,0.2288,0.2287,0.2276,0.2291,0.2291,0.2312,0.2273,0.2319,0.2321,0.2324,0.2366,0.2373,0.2378,0,0,0,0,0,0.2248,0.2256,0.226,0.2264,0.2276,0.2291,0.2292,0.2294,0.2292,0.2301,0.2302,0.2287,0.2307,0.2292,0.2291,0.2313,0.2317,0.2321,0.2324,0.2363,0.2371,0.2378,0,0,0,0,0,0,0.2242,0.2257,0.2261,0.2272,0.2286,0.2291,0.2298,0.2302,0.231,0.2312,0.2301,0.23,0.2323,0.2314,0.2298,0.2337,0.2311,0.2315,0.2342,0.2349,0.2355,0.2363,0.2273,0,0,0,0,0,0.2246,0.2256,0.227,0.228,0.2289,0.2297,0.2304,0.2309,0.2316,0.232,0.2319,0.2323,0.2335,0.2338,0.2344,0.2361,0.2366,0.2377,0.2383,0.2388,0.2396,0.2424,0.2433,0.2335,0.2335,0.2335,0,0,0.2245,0.2256,0.2261,0.2281,0.2289,0.2308,0.23,0.2318,0.2336,0.2318,0.234,0.2344,0.2345,0.2368,0.2377,0.2362,0.2421,0.2392,0.2396,0.2401,0.2428,0.2437,0.2446,0.2337,0.2337,0.2336,0,0,0.225,0.2261,0.2273,0.2288,0.2311,0.232,0.233,0.2345,0.2355,0.2378,0.2375,0.2396,0.2404,0.2414,0.2419,0.2463,0.2453,0.2465,0.2499,0.2526,0.2534,0.2541,0.2566,0.2575,0.2465,0.2466,0.2466,0,0.2251,0.2267,0.2279,0.2297,0.2312,0.2329,0.2348,0.2365,0.2384,0.2398,0.2392,0.243,0.2428,0.2465,0.2481,0.2477,0.2489,0.2468,0.2533,0.254,0.2547,0.257,0.258,0.2468,0.2468,0.2468,0.2467,0,0.2264,0.2282,0.2292,0.2322,0.234,0.2361,0.2387,0.241,0.2426,0.2441,0.2483,0.249,0.2512,0.2519,0.2513,0.2563,0.2556,0.2538,0.2513,0.256,0.2581,0.259,0.2472,0.2471,0.247,0.2469,0,0,0.2251,0.2293,0.2297,0.2313,0.2357,0.2368,0.2411,0.2449,0.2483,0.2505,0.2547,0.2572,0.258,0.2588,0.2589,0.2614,0.2672,0.2599,0.26,0.262,0.2736,0.2696,0.2701,0.2665,0.2666,0.2668,0.2734,0,0.2259,0.229,0.2315,0.2349,0.2366,0.2402,0.244,0.2478,0.2517,0.2563,0.2586,0.2628,0.2605,0.2628,0.2649,0.2672,0.2697,0.2655,0.269,0.2692,0.2647,0.2711,0.2494,0.2531,0.2743,0.2744,0.2745,0,0.2261,0.2283,0.2314,0.2361,0.2373,0.2401,0.2466,0.2505,0.2578,0.2613,0.266,0.2681,0.2732,0.2705,0.2761,0.2736,0.2741,0.2752,0.2754,0.2707,0.2668,0.2518,0.2539,0.276,0.2759,0.2757,0.2757,0,0.2229,0.2279,0.2301,0.2317,0.2377,0.2403,0.2443,0.2517,0.2563,0.2655,0.2698,0.2754,0.2791,0.2812,0.2826,0.2803,0.2885,0.285,0.2819,0.2816,0.2633,0.2611,0.289,0.289,0.289,0.2889,0.2889,0,0.222,0.2237,0.2288,0.2299,0.2336,0.2386,0.2445,0.2503,0.2595,0.2649,0.2718,0.2769,0.2821,0.2864,0.2863,0.2876,0.2912,0.2844,0.2837,0.2644,0.2623,0.2816,0.2806,0.2892,0.2891,0.2891,0.289,0,0.2178,0.2213,0.2239,0.23,0.232,0.2346,0.2438,0.2481,0.2581,0.2658,0.2691,0.28,0.2863,0.2902,0.2955,0.2922,0.294,0.2929,0.2703,0.2669,0.2843,0.2835,0.2909,0.2908,0.2908,0.2907,0.2907,0,0.2158,0.2168,0.2224,0.2237,0.2266,0.2316,0.2352,0.2461,0.2511,0.2659,0.2684,0.2796,0.2845,0.2924,0.2906,0.2918,0.2946,0.2709,0.2623,0.2863,0.2849,0.2842,0.2835,0.2399,0.2394,0.2391,0.2388,0,0.2119,0.2141,0.216,0.219,0.2221,0.2254,0.2314,0.2351,0.2473,0.2541,0.2629,0.2695,0.2793,0.2718,0.2755,0.2723,0.2692,0.2635,0.2947,0.2433,0.2388,0.2373,0.2381,0.2354,0.2358,0.236,0.2362,0.2363,0.2084,0.2084,0.2109,0.2128,0.2156,0.2167,0.2167,0.2236,0.2292,0.2364,0.2488,0.2507,0.2555,0.2509,0.2437,0.2379,0.2561,0.2425,0.2434,0.2447,0.2382,0.2339,0.2283,0.2286,0.2288,0.229,0.2292,0,0.2026,0.203,0.2044,0.205,0.2037,0.2088,0.2115,0.2092,0.2103,0.22,0.2258,0.2103,0.2082,0.2118,0.1992,0.2005,0.1954,0.1909,0.1811,0.1848,0.1879,0.1781,0.1525,0.1523,0.152,0.1518,0,0,0.1994,0.1971,0.1971,0.192,0.1925,0.1872,0.1863,0.1851,0.188,0.186,0.1854,0.2018,0.2085,0.1778,0.1747,0.161,0.171,0.155,0.2174,0.2098,0.2125,0.2198,0.2093,0,0,0,0,0]},{"header":{"parameterUnit":"m.s-1","parameterCategory":2,"la1":30.2991,"la2":30.254,"lo1":-89.0895,"lo2":-89.0444,"dy":0.0017,"dx":0.0017,"nx":28,"ny":28,"refTime":"2026-02-15T03:00:00:Z","depth":"2","parameterNumber":3,"parameterNumberName":"V-component_of_CURRENTS"},"data":[0,0,0,0,0,0,0,0,0,0,0,0,0,0,0,0,0,0,0,0,0,0,0,0,0,0,0,0,0,0,0,0,0,0,0,0,0,0,0,0,0,0,0,0,0,0,0,0,0,0,0,0,0,0,0,0,0,0,0.0108,0.0108,0,0.0076,0.0075,0.0075,0.0044,0.0043,0.0043,0.0043,-0.0007,-0.0008,-0.0009,0,0,0,0,0,0,0,0,0,0,0,0,0,0.0098,0.0099,0.0108,0.0108,0.0108,0.0076,0.0075,0.0075,0.0044,0.0043,0.0043,0.0043,-0.0007,-0.0008,-0.0009,0,0,0,0,0,0,0,0,0,0,0,0,0,0.0087,0.0099,0.0108,0.0089,0.0087,0.0076,0.0075,0.0074,0.0044,0.0043,0.0043,0.0043,-0.0006,-0.0008,-0.0009,-0.001,0,0,-0.0014,-0.0015,0,0,0,0,0,0,0,0,0.0088,0.0087,0.0092,0.009,0.0088,0.0064,0.0053,0.0046,0.0044,0.0059,0.0043,0.0042,0.0016,0.0013,0.0007,-0.0012,-0.0014,-0.0014,-0.0015,-0.0016,-0.0016,0,0,0,0,0,0,0,0.0089,0.0088,0.0094,0.0092,0.0089,0.0067,0.0065,0.0052,0.004,0.0058,0.0056,0.0054,0.0015,0.0008,0.0005,-0.0015,-0.0014,-0.0015,-0.0016,-0.0017,-0.0043,-0.0042,0,0,0,0,0,0,0.0098,0.009,0.0095,0.0093,0.0088,0.0067,0.0065,0.0072,0.004,0.0035,0.0054,0.0053,0.0011,0.0007,0.0003,0.0007,-0.0016,-0.0017,-0.0018,-0.0043,-0.0042,-0.0042,0,0,0,0,0,0,0.0098,0.0099,0.0097,0.0091,0.0089,0.0069,0.0075,0.0071,0.0064,0.0038,0.0032,0.0052,0.0011,0.0005,-0.0006,0.0004,-0.0018,-0.0019,-0.0043,-0.0043,-0.0042,0.0009,0,0,0,0,0,0,0.0098,0.0099,0.0105,0.0092,0.009,0.0097,0.0076,0.0071,0.0064,0.0061,0.0034,0.0029,0.001,-0.0003,-0.0007,0.0002,-0.002,-0.0043,-0.0043,-0.0042,0.0007,0.0012,0.0015,0,0,0,0,0,0.0098,0.0114,0.0106,0.0106,0.0099,0.0098,0.0095,0.0077,0.0064,0.0068,0.0046,0.0029,-0.0003,-0.0004,-0.0009,-0.0,-0.0044,-0.0043,-0.0042,0.0006,0.0011,0.0015,0,0,0,0,0,0,0.0113,0.0112,0.0103,0.0117,0.0109,0.0093,0.0094,0.0081,0.0066,0.0061,0.0034,0.0028,0.002,0.0003,0.0003,-0.0007,-0.0027,-0.0027,0.0012,0.0016,0.002,0.0035,-0.0022,0,0,0,0,0,0.0119,0.013,0.0121,0.0131,0.0129,0.0111,0.0107,0.0095,0.0082,0.0074,0.0055,0.0034,0.0019,0.0013,-0.0005,-0.0007,-0.003,-0.0006,-0.0002,0.0002,0.001,-0.0018,-0.0016,-0.004,-0.004,-0.004,0,0,0.0126,0.0127,0.0132,0.0134,0.0125,0.0136,0.0107,0.0106,0.0113,0.0072,0.0072,0.0046,0.0021,0.0017,0.0012,0.0004,-0.0005,0.0002,0.0006,0.0012,-0.0017,-0.0015,-0.0013,-0.004,-0.004,-0.004,0,0,0.0152,0.0148,0.0167,0.0167,0.016,0.0151,0.0154,0.0139,0.0131,0.0126,0.0098,0.008,0.0058,0.0044,0.0034,0.0049,0.0015,0.004,0.0076,0.0048,0.005,0.0051,0.0023,0.0021,0.0045,0.0045,0.0045,0,0.016,0.0186,0.0171,0.0189,0.0195,0.0163,0.0186,0.0174,0.0157,0.0156,0.0133,0.0098,0.0073,0.0072,0.0075,0.0059,0.0036,0.0062,0.0054,0.0055,0.0055,0.0025,0.0023,0.0047,0.0047,0.0047,0.0047,0,0.0203,0.022,0.0231,0.0247,0.0249,0.0262,0.0249,0.0245,0.0225,0.0212,0.0198,0.0157,0.014,0.0124,0.0104,0.01,0.0079,0.0061,0.0045,0.0061,0.0028,0.0025,0.0051,0.005,0.0049,0.0049,0,0,0.0231,0.0258,0.0261,0.0282,0.0283,0.0294,0.0302,0.0306,0.0319,0.028,0.0289,0.0248,0.0219,0.0205,0.017,0.0143,0.0121,0.0108,0.0105,0.0085,0.0058,0.0041,0.0035,0.0099,0.0099,0.0099,0.0033,0,0.0269,0.0321,0.0321,0.0367,0.0394,0.0374,0.0388,0.0383,0.0369,0.0367,0.0313,0.0305,0.0252,0.0243,0.0207,0.0146,0.0115,0.0141,0.0041,0.0038,0.0025,0.0032,0.005,-0.0007,0.0029,0.0028,0.0028,0,0.0315,0.0345,0.0399,0.0437,0.0446,0.0463,0.0484,0.0496,0.0479,0.0467,0.0439,0.0394,0.0352,0.03,0.0202,0.022,0.0147,0.009,0.0085,0.0052,0.0015,-0.0018,-0.0015,0.0022,0.0022,0.0023,0.0023,0,0.0353,0.0402,0.0449,0.0462,0.0494,0.051,0.0524,0.0525,0.0553,0.0533,0.0541,0.0472,0.0446,0.0344,0.0222,0.0212,0.0106,0.0077,-0.0009,-0.0012,-0.0024,-0.0026,0.0006,0.0006,0.0006,0.0006,0.0006,0,0.04,0.0438,0.0471,0.0498,0.0557,0.0557,0.0615,0.0616,0.0633,0.0674,0.0598,0.0607,0.0455,0.0373,0.0249,0.0114,0.0125,0.0001,-0.0027,-0.0006,-0.0006,-0.0003,-0.0003,0.0004,0.0004,0.0005,0.0005,0,0.0437,0.0456,0.0518,0.056,0.0578,0.0621,0.0687,0.0731,0.073,0.0778,0.0775,0.0712,0.0605,0.0444,0.0281,0.0163,0.0026,-0.0027,0.0007,-0.0015,-0.0082,-0.0079,-0.0128,-0.0129,-0.013,-0.0131,-0.0132,0,0.0463,0.0498,0.0568,0.0611,0.0633,0.0699,0.0749,0.0779,0.0836,0.0848,0.0879,0.0789,0.0745,0.0497,0.0269,0.0049,0.0022,-0.008,-0.0097,-0.0072,-0.0095,-0.009,-0.0086,-0.0098,-0.0098,-0.0098,-0.0098,0,0.0513,0.0534,0.0585,0.0676,0.0738,0.0822,0.0895,0.0954,0.0989,0.1026,0.1053,0.1014,0.0774,0.0558,0.025,0.01,-0.0046,-0.0092,-0.0075,-0.0062,-0.0048,-0.0068,-0.0064,-0.0101,-0.01,-0.01,-0.01,-0.01,0.055,0.0595,0.0661,0.0749,0.0827,0.0927,0.1005,0.1083,0.1176,0.1226,0.1184,0.1127,0.0871,0.0483,0.0216,-0.0067,-0.0053,-0.0151,-0.0149,-0.0146,-0.0127,-0.0114,-0.0176,-0.0176,-0.0176,-0.0177,-0.0177,0,0.0597,0.0648,0.0731,0.0836,0.0929,0.0965,0.1092,0.1168,0.1277,0.1308,0.1323,0.1078,0.0826,0.0526,0.0107,-0.0137,-0.0155,-0.0215,-0.0182,-0.0177,-0.0174,-0.0155,-0.0213,-0.0214,-0.0214,-0.0215,0,0,0.0621,0.0704,0.0747,0.0901,0.0979,0.111,0.1187,0.129,0.1344,0.138,0.1343,0.1271,0.0907,0.0603,0.0267,0.0025,-0.002,-0.0024,0.0031,0.0115,0.0121,-0.0111,-0.0074,0,0,0,0,0]}],[{"header":{"parameterUnit":"m.s-1","parameterCategory":2,"la1":30.2991,"la2":30.254,"lo1":-89.0895,"lo2":-89.0444,"dy":0.0017,"dx":0.0017,"nx":28,"ny":28,"refTime":"2026-02-15T03:00:00:Z","depth":"4","parameterNumber":2,"parameterNumberName":"U-component_of_CURRENTS"},"data":[0,0,0,0,0,0,0,0,0,0,0,0,0,0,0,0,0,0,0,0,0,0,0,0,0,0,0,0,0,0,0,0,0,0,0,0,0,0,0,0,0,0,0,0,0,0,0,0,0,0,0,0,0,0,0,0,0,0,0.148,0.1481,0,0.1532,0.1532,0.1533,0.1577,0.1577,0.1578,0.1579,0.1638,0.1639,0.164,0,0,0,0,0,0,0,0,0,0,0,0,0,0.1409,0.141,0.148,0.1481,0.1482,0.1532,0.1532,0.1533,0.1577,0.1577,0.1578,0.1579,0.1637,0.1639,0.164,0,0,0,0,0,0,0,0,0,0,0,0,0,0.1446,0.141,0.148,0.1511,0.1514,0.1532,0.1532,0.1533,0.1577,0.1578,0.1578,0.1579,0.1637,0.1638,0.164,0.163,0,0,0.1644,0.1645,0,0,0,0,0,0,0,0,0.1444,0.1449,0.1505,0.1509,0.1513,0.155,0.1529,0.1566,0.1576,0.1551,0.1579,0.158,0.161,0.1613,0.1618,0.1633,0.1635,0.1645,0.1645,0.1646,0.1646,0,0,0,0,0,0,0,0.1442,0.1447,0.1499,0.1506,0.1511,0.1519,0.1525,0.1536,0.1573,0.1553,0.1557,0.1565,0.1611,0.1617,0.162,0.1636,0.1644,0.1646,0.1647,0.1647,0.1744,0.1745,0,0,0,0,0,0,0.1438,0.1444,0.1497,0.1501,0.1482,0.1519,0.1526,0.1536,0.1573,0.158,0.1564,0.1567,0.1614,0.1618,0.1623,0.17,0.1646,0.1647,0.1648,0.1742,0.1744,0.1746,0,0,0,0,0,0,0.1436,0.1442,0.1495,0.1475,0.1482,0.152,0.153,0.1536,0.1575,0.1582,0.1589,0.16,0.1615,0.162,0.1665,0.17,0.1648,0.1649,0.174,0.1743,0.1745,0.1799,0,0,0,0,0,0,0.1434,0.1441,0.1462,0.1475,0.1484,0.1526,0.153,0.1537,0.1577,0.1582,0.1614,0.1619,0.1616,0.1663,0.1666,0.1701,0.1651,0.1738,0.1741,0.1744,0.1796,0.1803,0.181,0,0,0,0,0,0.1431,0.1449,0.1462,0.147,0.1506,0.1527,0.1533,0.1561,0.1578,0.1599,0.1626,0.1619,0.1686,0.1665,0.1669,0.1705,0.1737,0.174,0.1744,0.1792,0.1802,0.181,0,0,0,0,0,0,0.1428,0.1455,0.1471,0.1497,0.1522,0.1536,0.1562,0.1579,0.1616,0.1632,0.1638,0.1644,0.1697,0.1694,0.1672,0.1743,0.1711,0.1716,0.1747,0.1756,0.1763,0.1766,0.1652,0,0,0,0,0,0.1437,0.1461,0.1483,0.1508,0.1524,0.155,0.1569,0.1589,0.1615,0.1634,0.1657,0.1684,0.1709,0.1728,0.1747,0.1783,0.1782,0.181,0.1817,0.1824,0.183,0.1858,0.1868,0.1759,0.1758,0.1758,0,0,0.1443,0.1462,0.1477,0.1511,0.1534,0.1561,0.1565,0.1604,0.1635,0.1634,0.1693,0.1713,0.1726,0.177,0.1793,0.1776,0.1856,0.1828,0.1834,0.1836,0.1863,0.1874,0.1883,0.1761,0.1761,0.176,0,0,0.1455,0.1486,0.1508,0.1533,0.1575,0.159,0.1609,0.1645,0.1675,0.1725,0.1736,0.1779,0.1816,0.1833,0.1844,0.1904,0.1895,0.1916,0.1956,0.1984,0.1993,0.2001,0.2017,0.2026,0.1919,0.1919,0.1919,0,0.1466,0.1495,0.1519,0.1546,0.1572,0.1608,0.1638,0.1669,0.1718,0.1745,0.1755,0.1832,0.1845,0.1895,0.192,0.1921,0.1932,0.1919,0.1993,0.2001,0.2008,0.2023,0.2032,0.1922,0.1922,0.1922,0.1921,0,0.1484,0.1522,0.1539,0.1585,0.1615,0.165,0.169,0.1736,0.1778,0.1805,0.1878,0.1903,0.1947,0.1962,0.1961,0.2024,0.2015,0.1998,0.1967,0.2022,0.2034,0.2043,0.1927,0.1926,0.1925,0.1924,0,0,0.1469,0.1539,0.1549,0.1579,0.1643,0.1664,0.1727,0.1782,0.1832,0.1887,0.1947,0.1999,0.2022,0.2037,0.2049,0.2077,0.2139,0.2067,0.2067,0.2078,0.2202,0.2061,0.2057,0.214,0.2141,0.2143,0.2191,0,0.1482,0.1532,0.1569,0.1627,0.1656,0.1712,0.1765,0.1823,0.1882,0.195,0.1992,0.2057,0.2047,0.2087,0.2113,0.2138,0.2165,0.2128,0.2152,0.2153,0.2016,0.2063,0.2148,0.2197,0.2199,0.2201,0.2202,0,0.1482,0.1519,0.1575,0.165,0.167,0.1717,0.181,0.1864,0.1959,0.2009,0.2077,0.2114,0.218,0.2163,0.2225,0.2206,0.2212,0.2221,0.2222,0.2076,0.2027,0.2131,0.2216,0.2215,0.2214,0.2213,0.2212,0,0.1441,0.152,0.1567,0.1593,0.1684,0.1732,0.1791,0.1887,0.1944,0.206,0.2114,0.2186,0.2239,0.2265,0.2283,0.2269,0.2338,0.2312,0.2189,0.218,0.2267,0.2258,0.2352,0.2352,0.2352,0.2352,0.2351,0,0.142,0.1461,0.1559,0.1583,0.1652,0.1723,0.1811,0.1883,0.1993,0.2054,0.2146,0.2194,0.2271,0.2311,0.2313,0.2272,0.236,0.2202,0.2184,0.229,0.2283,0.2273,0.2263,0.2353,0.2353,0.2353,0.2352,0,0.1362,0.1428,0.1487,0.1594,0.1634,0.1685,0.1816,0.1871,0.1989,0.2075,0.2117,0.2226,0.2272,0.232,0.2368,0.2294,0.2283,0.2246,0.2365,0.2351,0.21,0.2093,0.2109,0.2105,0.2101,0.2098,0.2095,0,0.1333,0.136,0.1481,0.152,0.1577,0.1668,0.1726,0.1858,0.191,0.2065,0.2085,0.2188,0.2238,0.2189,0.2252,0.2245,0.2215,0.2193,0.2134,0.2095,0.2077,0.2075,0.2073,0.2089,0.2088,0.2087,0.2086,0,0.1276,0.1336,0.1385,0.1466,0.1536,0.16,0.1691,0.1718,0.1855,0.1978,0.2004,0.2028,0.2074,0.2095,0.2107,0.2097,0.2198,0.2152,0.2159,0.2104,0.2071,0.2055,0.2058,0.2073,0.2075,0.2076,0.2077,0,0.1239,0.1259,0.1334,0.1392,0.1472,0.1501,0.1564,0.1614,0.1681,0.184,0.1843,0.1947,0.205,0.2019,0.203,0.201,0.1974,0.1899,0.1919,0.1934,0.1853,0.1783,0.1685,0,0,0,0,0,0.1191,0.1202,0.125,0.1302,0.1375,0.1421,0.1522,0.1584,0.1711,0.1682,0.1757,0.1789,0.1806,0.1861,0.1804,0.1954,0.1985,0.1879,0.1911,0.1999,0.2014,0.1933,0,0,0,0,0,0,0.1158,0.1201,0.1216,0.1214,0.1231,0.1296,0.1355,0.1442,0.1429,0.1563,0.1579,0.1679,0.1722,0.1817,0.177,0.1785,0.1767,0.1948,0.1943,0.199,0.2004,0.2016,0.1938,0,0,0,0,0]},{"header":{"parameterUnit":"m.s-1","parameterCategory":2,"la1":30.2991,"la2":30.254,"lo1":-89.0895,"lo2":-89.0444,"dy":0.0017,"dx":0.0017,"nx":28,"ny":28,"refTime":"2026-02-15T03:00:00:Z","depth":"4","parameterNumber":3,"parameterNumberName":"V-component_of_CURRENTS"},"data":[0,0,0,0,0,0,0,0,0,0,0,0,0,0,0,0,0,0,0,0,0,0,0,0,0,0,0,0,0,0,0,0,0,0,0,0,0,0,0,0,0,0,0,0,0,0,0,0,0,0,0,0,0,0,0,0,0,0,0.0165,0.0165,0,0.0145,0.0145,0.0145,0.0131,0.0131,0.0131,0.0131,0.0101,0.01,0.0099,0,0,0,0,0,0,0,0,0,0,0,0,0,0.0158,0.0158,0.0165,0.0165,0.0165,0.0145,0.0145,0.0145,0.0131,0.0131,0.0131,0.013,0.0101,0.01,0.0099,0,0,0,0,0,0,0,0,0,0,0,0,0,0.0151,0.0158,0.0165,0.0156,0.0155,0.0145,0.0145,0.0145,0.0131,0.0131,0.0131,0.013,0.0101,0.01,0.0099,0.0095,0,0,0.0096,0.0095,0,0,0,0,0,0,0,0,0.0152,0.0152,0.0157,0.0156,0.0155,0.0141,0.0131,0.0128,0.0131,0.014,0.0131,0.013,0.0114,0.0111,0.0108,0.0093,0.0092,0.0096,0.0095,0.0095,0.0094,0,0,0,0,0,0,0,0.0152,0.0152,0.0157,0.0157,0.0156,0.0141,0.014,0.013,0.0127,0.0139,0.0138,0.0136,0.0113,0.0109,0.0107,0.0092,0.0096,0.0095,0.0094,0.0094,0.0072,0.0072,0,0,0,0,0,0,0.0158,0.0153,0.0158,0.0156,0.0154,0.0141,0.0141,0.0145,0.0127,0.0125,0.0136,0.0136,0.0111,0.0108,0.0106,0.0109,0.0095,0.0094,0.0093,0.0071,0.0072,0.0072,0,0,0,0,0,0,0.0158,0.0158,0.0158,0.0154,0.0153,0.0142,0.0147,0.0145,0.0143,0.0126,0.0123,0.0137,0.011,0.0107,0.0101,0.0107,0.0093,0.0092,0.0071,0.0072,0.0072,0.011,0,0,0,0,0,0,0.0158,0.0159,0.0164,0.0155,0.0154,0.0159,0.0147,0.0145,0.0143,0.0141,0.0125,0.0122,0.011,0.0103,0.01,0.0106,0.0091,0.0071,0.0071,0.0072,0.0108,0.0111,0.0113,0,0,0,0,0,0.0157,0.0169,0.0165,0.0165,0.0162,0.016,0.0158,0.0149,0.0143,0.0146,0.0134,0.0123,0.0101,0.0102,0.0099,0.0104,0.0071,0.0071,0.0072,0.0107,0.011,0.0113,0,0,0,0,0,0,0.0168,0.0168,0.0163,0.0174,0.0169,0.0158,0.0159,0.0152,0.0145,0.0144,0.0126,0.0122,0.0118,0.0105,0.0106,0.0097,0.0084,0.0083,0.0112,0.0115,0.0117,0.0129,0.009,0,0,0,0,0,0.0173,0.0182,0.0175,0.0183,0.0182,0.0171,0.0169,0.0163,0.0155,0.0151,0.014,0.0126,0.0116,0.0111,0.0099,0.0096,0.0075,0.0096,0.0098,0.0101,0.0107,0.0078,0.0079,0.0072,0.0072,0.0072,0,0,0.0178,0.018,0.0184,0.0186,0.0181,0.0188,0.017,0.017,0.0176,0.0149,0.0153,0.0135,0.0116,0.0113,0.011,0.0104,0.009,0.0101,0.0103,0.0108,0.0078,0.0079,0.008,0.0072,0.0072,0.0072,0,0,0.0196,0.0196,0.0209,0.021,0.0207,0.0201,0.0203,0.0194,0.0191,0.0189,0.0171,0.0158,0.0143,0.0131,0.0123,0.0131,0.0104,0.0126,0.015,0.0122,0.0122,0.0122,0.0092,0.009,0.0128,0.0128,0.0128,0,0.0202,0.0221,0.0212,0.0225,0.0231,0.021,0.0227,0.0219,0.021,0.021,0.0196,0.017,0.0153,0.0148,0.015,0.0138,0.0116,0.0142,0.0126,0.0125,0.0125,0.0094,0.009,0.013,0.013,0.0129,0.0129,0,0.0231,0.0246,0.0254,0.0267,0.027,0.028,0.0272,0.027,0.026,0.0251,0.0241,0.021,0.0197,0.0185,0.0171,0.0162,0.0145,0.0132,0.012,0.0128,0.0095,0.009,0.0132,0.0132,0.0131,0.0131,0,0,0.0247,0.0271,0.0275,0.0293,0.0296,0.0304,0.0311,0.0315,0.0325,0.0298,0.0304,0.0274,0.0253,0.0241,0.0215,0.0188,0.0162,0.0163,0.0161,0.0138,0.0097,0.0083,0.0077,0.0145,0.0145,0.0144,0.0074,0,0.0274,0.0313,0.0316,0.0352,0.0373,0.0362,0.0374,0.0372,0.0362,0.036,0.0318,0.0313,0.0276,0.027,0.0236,0.0184,0.0152,0.0182,0.0089,0.0086,0.0077,0.0072,0.0143,0.007,0.0069,0.0068,0.0068,0,0.0303,0.0328,0.037,0.0404,0.0411,0.0428,0.0447,0.0457,0.0443,0.0435,0.0412,0.0379,0.034,0.0304,0.0213,0.0233,0.0172,0.0122,0.0118,0.0092,0.0065,0.006,0.0059,0.006,0.0061,0.0061,0.0062,0,0.0326,0.0367,0.0406,0.0418,0.0447,0.0465,0.0479,0.0481,0.0501,0.0486,0.0491,0.0431,0.0407,0.0321,0.0218,0.0216,0.0109,0.0093,0.002,0.0018,0.0035,0.0035,0.0027,0.0027,0.0027,0.0027,0.0027,0,0.0354,0.0387,0.0423,0.0445,0.0495,0.0501,0.055,0.0552,0.0564,0.0589,0.0535,0.0529,0.041,0.0333,0.0233,0.0113,0.0118,0.0024,-0.0,0.0051,0.0055,0.0031,0.0033,0.0024,0.0025,0.0026,0.0026,0,0.0374,0.0395,0.0447,0.049,0.0509,0.0546,0.0607,0.0639,0.0641,0.067,0.0668,0.0603,0.0501,0.0373,0.0229,0.0141,0.0023,-0.0022,0.0043,0.0024,-0.0055,-0.0051,-0.0109,-0.011,-0.0111,-0.0112,-0.0112,0,0.0387,0.0415,0.0484,0.052,0.0545,0.0605,0.0648,0.0677,0.0712,0.0712,0.0722,0.0639,0.0576,0.0367,0.0226,0.003,-0.0,-0.0065,-0.0062,-0.0051,-0.0069,-0.0063,-0.0058,-0.0114,-0.0114,-0.0114,-0.0114,0,0.0412,0.0437,0.0479,0.0557,0.0614,0.0684,0.0742,0.0772,0.0798,0.0803,0.0766,0.0655,0.0537,0.0369,0.0215,0.0074,-0.0025,-0.0075,-0.0074,-0.0072,-0.0057,-0.0073,-0.0066,-0.0117,-0.0117,-0.0117,-0.0117,0,0.043,0.0463,0.052,0.0589,0.0664,0.073,0.0765,0.0798,0.083,0.082,0.0805,0.0676,0.0603,0.0391,0.025,0.0108,0.0069,0.0018,0.0013,0.0015,0.0068,0.0106,0.0077,0,0,0,0,0,0.0444,0.0481,0.0547,0.0621,0.0697,0.0744,0.0813,0.0839,0.0861,0.0841,0.0824,0.0712,0.0501,0.0413,0.0269,0.0224,0.004,0.0049,-0.0022,-0.0134,-0.0131,-0.0091,0,0,0,0,0,0,0.0451,0.051,0.0544,0.0635,0.0691,0.0778,0.0826,0.0844,0.0831,0.0827,0.0721,0.0669,0.0468,0.0584,0.0265,0.0222,0.0154,-0.0045,-0.0049,-0.0136,-0.0133,-0.013,-0.0088,0,0,0,0,0]}]]